Regional Weather Roundup
Issued by NWS Green Bay, WI

Current Version | Previous Version | Text Only | Print | Product List | Glossary On
Versions: 1 2 3 4 5 6 7 8 9 10 11 12 13 14 15 16 17 18 19 20 21 22 23 24 25 26 27 28 29 30 31 32 33 34 35 36 37 38 39 40 41 42 43 44 45 46 47 48 49 50
000
ASUS43 KGRB 270411
RWRGRB

NORTH-CENTRAL AND NORTHEAST WISCONSIN REGIONAL WEATHER ROUNDUP
NATIONAL WEATHER SERVICE GREEN BAY WI
1100 PM CDT MON OCT 26 2020

WIZ005-009-010>012-018-019-270500-
NORTH CENTRAL WISCONSIN

CITY           SKY/WX    TMP DP  RH WIND       PRES   REMARKS
IRONWOOD       FAIR      11   7  84 CALM      30.31R
MANITOWISH WTR CLOUDY    15  12  87 CALM      30.28S
ARBOR VITAE    FAIR      19  15  86 CALM      30.28S
EAGLE RIVER    FAIR      19  11  71 CALM      30.28S
LAND O LAKES   CLOUDY    23  14  68 CALM      30.31R
RHINELANDER    FAIR      20  10  65 W3        30.29F
PHILLIPS       FAIR      15  13  95 CALM      30.29F
ANTIGO         FAIR      20  14  76 NW3       30.30F
TOMAHAWK       FAIR      16  13  88 CALM      30.31S
MERRILL        FAIR      17  14  88 CALM      30.31S
$$

WIZ013-073-270500-
NORTHEAST WISCONSIN

CITY           SKY/WX    TMP DP  RH WIND       PRES   REMARKS
IRON MOUNTAIN  FAIR      25  18  74 NW3       30.30S
MARINETTE      FAIR      27  23  85 N5        30.34S
OCONTO         CLOUDY    27  23  85 CALM      30.34S
$$

WIZ017-030-035>037-045-270500-
CENTRAL WISCONSIN

CITY           SKY/WX    TMP DP  RH WIND       PRES   REMARKS
MEDFORD        FAIR      17  15  91 CALM      30.30S
WAUSAU         FAIR      21  16  81 CALM      30.31F
MOSINEE        FAIR      23  16  74 CALM      30.34S
MARSHFIELD     FAIR      26  15  63 CALM      30.32S
WISC RAPIDS    FAIR      23  18  81 CALM      30.35S
STEVENS POINT  FAIR      18  15  86 CALM      30.35R
WAUPACA        FAIR      28  17  63 CALM      30.35S
SHAWANO        FAIR      28  17  64 CALM      30.34S
CLINTONVILLE   FAIR      26  15  63 NW5       30.34S
WAUTOMA        FAIR      24  20  84 CALM      30.36R
$$

WIZ038-039-048-051-270500-
FOX VALLEY

CITY           SKY/WX    TMP DP  RH WIND       PRES   REMARKS
NWS GREEN BAY  FAIR      29  19  66 NW7       30.34R
APPLETON       FAIR      27  12  54 NW8       30.32S
OSHKOSH        FAIR      27  18  69 W7        30.34R
FOND DU LAC    FAIR      27  19  72 NW7       30.34S
$$

WIZ022-050-052-270500-
EAST CENTRAL WISCONSIN

CITY           SKY/WX    TMP DP  RH WIND       PRES   REMARKS
EPHRAIM        CLOUDY    32  26  77 NW6       30.31S
WASHINGTON ISL CLOUDY    32  25  73 NW7       30.32R
STURGEON BAY   CLOUDY    32  24  72 N7        30.33R
MANITOWOC      FAIR      30  21  69 NW8       30.34R
SHEBOYGAN      FAIR      31  19  61 NW6       30.32S
$$

LMZ563-521-522-541>543-270500-
LAKESHORE

STATION/POSITION TIME  TEMP    WIND        PRES    VSBY  WAVE
                       AIR SEA DIR/SP/G                  HT/PER
                 (UTC) (F)     (DEG/KT/KT) (MB)    (MI)  (FT/S)
SHEBOYGAN LKSHOR 0400   32     310/  8/  9   N/A
KEWAUNEE LKSHORE 0330   31     310/  2/  5 1026.1S
N MID LAKE BUOY  0350   37 53  360/ 12/ 16 1027.3R         3/ 4
SISTER BAY LKSHO 0329   35     350/ 11/ 14   N/A
CHAMBERS ISLAND  0340   34     290/ 12/ 14   N/A
MENOMINEE LKSHOR 0330   32 45  340/ 11/ 13 1026.7S
$$



USA.gov is the U.S. government's official web portal to all federal, state and local government web resources and services.